[[{"header":{"parameterUnit":"m.s-1","parameterCategory":1,"la1":30.2991,"la2":30.254,"lo1":-89.0895,"lo2":-89.0444,"dy":0.0017,"dx":0.0017,"nx":28,"ny":28,"refTime":"2024-09-29T03:00:00:Z","depth":0,"parameterNumber":2,"parameterNumberName":"U-component_of_WINDS"},"data":[0,0,0,0,0,0,0,0,0,0,0,0,0,0,0,0,0,0,0,0,0,0,0,0,0,0,0,0,0,0,0,0,0,0,0,0,0,0,0,0,0,0,0,0,0,0,0,0,0,0,0,0,0,0,0,0,0,0,-0.4613,-0.4613,0,-0.4619,-0.4619,-0.4619,-0.4593,-0.4593,-0.4592,-0.4591,-0.4599,-0.4599,-0.46,0,0,0,0,0,0,0,0,0,0,0,0,0,-0.458,-0.4581,-0.4613,-0.4613,-0.4613,-0.4619,-0.4619,-0.4619,-0.4593,-0.4593,-0.4592,-0.4591,-0.4598,-0.4599,-0.46,0,0,0,0,0,0,0,0,0,0,0,0,0,-0.4591,-0.4581,-0.4613,-0.4601,-0.46,-0.4619,-0.4619,-0.4619,-0.4594,-0.4593,-0.4591,-0.459,-0.4598,-0.4599,-0.4601,-0.4632,0,0,-0.4605,-0.4605,0,0,0,0,0,0,0,0,-0.4591,-0.4593,-0.4603,-0.4602,-0.4601,-0.4604,-0.461,-0.4623,-0.4594,-0.4596,-0.4591,-0.459,-0.4601,-0.4602,-0.4606,-0.4632,-0.4632,-0.4605,-0.4606,-0.4606,-0.4607,0,0,0,0,0,0,0,-0.459,-0.4592,-0.4615,-0.4603,-0.4602,-0.4596,-0.4596,-0.4612,-0.4605,-0.4596,-0.4594,-0.4595,-0.4601,-0.4605,-0.4606,-0.4632,-0.4605,-0.4606,-0.4607,-0.4607,-0.4683,-0.4684,0,0,0,0,0,0,-0.4591,-0.4592,-0.4615,-0.4616,-0.4593,-0.4597,-0.4597,-0.4604,-0.4605,-0.4604,-0.4596,-0.4594,-0.4603,-0.4604,-0.4606,-0.4642,-0.4606,-0.4607,-0.4608,-0.4682,-0.4683,-0.4684,0,0,0,0,0,0,-0.459,-0.4593,-0.4615,-0.4603,-0.4605,-0.4599,-0.4607,-0.4605,-0.4609,-0.4605,-0.4604,-0.4601,-0.4602,-0.4604,-0.4625,-0.4642,-0.4608,-0.4609,-0.468,-0.4682,-0.4684,-0.4714,0,0,0,0,0,0,-0.4589,-0.4593,-0.4605,-0.4603,-0.4606,-0.4634,-0.4608,-0.4606,-0.4611,-0.4608,-0.461,-0.4609,-0.4601,-0.4623,-0.4626,-0.4643,-0.461,-0.4679,-0.4681,-0.4683,-0.4711,-0.4716,-0.4721,0,0,0,0,0,-0.4588,-0.4613,-0.4605,-0.4608,-0.462,-0.4635,-0.4636,-0.4627,-0.4613,-0.4624,-0.4621,-0.4609,-0.4639,-0.4626,-0.4629,-0.4646,-0.4678,-0.468,-0.4683,-0.4709,-0.4715,-0.4721,0,0,0,0,0,0,-0.4618,-0.4613,-0.4604,-0.463,-0.4633,-0.463,-0.4645,-0.4634,-0.4641,-0.4639,-0.4627,-0.4627,-0.465,-0.465,-0.4635,-0.4676,-0.4656,-0.4659,-0.4675,-0.4681,-0.4685,-0.4685,-0.4611,0,0,0,0,0,-0.4627,-0.4638,-0.4634,-0.4657,-0.4659,-0.4652,-0.4658,-0.465,-0.4653,-0.4654,-0.4653,-0.4656,-0.4666,-0.4674,-0.4683,-0.4711,-0.4711,-0.4724,-0.4729,-0.4733,-0.4736,-0.475,-0.4756,-0.4693,-0.4693,-0.4693,0,0,-0.4647,-0.4646,-0.4654,-0.4663,-0.4664,-0.4677,-0.4653,-0.4667,-0.4676,-0.4656,-0.4675,-0.4675,-0.4678,-0.4702,-0.4713,-0.4703,-0.4753,-0.4736,-0.474,-0.4741,-0.4754,-0.476,-0.4765,-0.4695,-0.4695,-0.4694,0,0,-0.4689,-0.4689,-0.4708,-0.4709,-0.4711,-0.4706,-0.4711,-0.471,-0.4708,-0.4727,-0.4712,-0.4723,-0.4741,-0.4743,-0.4747,-0.4789,-0.4777,-0.4792,-0.4817,-0.4831,-0.4835,-0.484,-0.4854,-0.4859,-0.4795,-0.4795,-0.4795,0,-0.4713,-0.4731,-0.4719,-0.4734,-0.4738,-0.472,-0.4739,-0.4741,-0.4746,-0.475,-0.4738,-0.476,-0.4761,-0.4785,-0.4795,-0.4799,-0.4803,-0.4792,-0.4836,-0.484,-0.4844,-0.4857,-0.4863,-0.4797,-0.4797,-0.4797,-0.4796,0,-0.476,-0.4772,-0.4787,-0.4792,-0.4798,-0.4815,-0.4806,-0.4813,-0.4805,-0.4801,-0.482,-0.482,-0.4828,-0.4834,-0.4826,-0.4857,-0.485,-0.4838,-0.4818,-0.4852,-0.4864,-0.4869,-0.48,-0.4799,-0.4798,-0.4798,0,0,-0.4822,-0.4819,-0.4824,-0.4825,-0.4826,-0.4835,-0.4851,-0.4858,-0.4865,-0.4869,-0.4881,-0.4897,-0.4884,-0.4889,-0.4881,-0.4893,-0.4925,-0.4879,-0.4879,-0.4887,-0.4958,-0.4967,-0.4973,-0.4917,-0.4918,-0.4919,-0.4957,0,-0.4863,-0.4889,-0.4878,-0.4905,-0.4916,-0.4898,-0.4912,-0.4913,-0.491,-0.4919,-0.4915,-0.4925,-0.4909,-0.4911,-0.4922,-0.4919,-0.4939,-0.4916,-0.4929,-0.4929,-0.4928,-0.498,-0.499,-0.5026,-0.4962,-0.4963,-0.4964,0,-0.4914,-0.4919,-0.4946,-0.4944,-0.4948,-0.496,-0.4966,-0.4974,-0.4976,-0.4972,-0.4976,-0.4965,-0.498,-0.496,-0.4981,-0.4965,-0.497,-0.4969,-0.497,-0.4971,-0.4948,-0.4982,-0.5038,-0.5043,-0.4971,-0.4971,-0.497,0,-0.4955,-0.4969,-0.4987,-0.4989,-0.4986,-0.4995,-0.4994,-0.4994,-0.4999,-0.5004,-0.5007,-0.5014,-0.5018,-0.5023,-0.5015,-0.5001,-0.5036,-0.5016,-0.5033,-0.5034,-0.5042,-0.5041,-0.5099,-0.5045,-0.5045,-0.5045,-0.5045,0,-0.5002,-0.5019,-0.5005,-0.5016,-0.5035,-0.5023,-0.5042,-0.504,-0.504,-0.505,-0.5035,-0.5045,-0.5034,-0.5042,-0.5036,-0.5053,-0.5055,-0.5053,-0.5051,-0.5054,-0.5054,-0.5057,-0.5054,-0.5047,-0.5046,-0.5046,-0.5046,0,-0.5051,-0.5042,-0.5061,-0.5056,-0.5056,-0.507,-0.5066,-0.5076,-0.5071,-0.5084,-0.5086,-0.5079,-0.5088,-0.508,-0.509,-0.5085,-0.5108,-0.5103,-0.5107,-0.5106,-0.5124,-0.5122,-0.5185,-0.5192,-0.5134,-0.5135,-0.5135,0,-0.5081,-0.5094,-0.509,-0.5096,-0.5096,-0.5105,-0.5109,-0.5098,-0.5103,-0.5105,-0.5114,-0.5123,-0.5128,-0.5144,-0.514,-0.5147,-0.5141,-0.5163,-0.5142,-0.5145,-0.5141,-0.514,-0.5141,-0.5167,-0.5168,-0.5168,-0.5169,0,-0.5135,-0.513,-0.5137,-0.5141,-0.5147,-0.515,-0.5153,-0.5158,-0.5146,-0.5153,-0.5162,-0.5166,-0.5175,-0.5183,-0.5189,-0.5188,-0.5176,-0.5175,-0.5179,-0.5182,-0.5184,-0.5183,-0.5118,-0.5174,-0.5173,-0.5173,-0.5172,-0.5172,-0.5176,-0.5186,-0.5184,-0.5192,-0.5192,-0.5194,-0.5203,-0.5199,-0.5206,-0.5212,-0.5204,-0.5215,-0.5215,-0.5221,-0.5222,-0.523,-0.5221,-0.5228,-0.5229,-0.5231,-0.5233,-0.5183,-0.5231,-0.5231,-0.5231,-0.5231,-0.5231,0,-0.5228,-0.5226,-0.5233,-0.5236,-0.5242,-0.523,-0.5231,-0.5237,-0.5247,-0.5247,-0.5253,-0.5263,-0.527,-0.5266,-0.5272,-0.528,-0.5274,-0.5282,-0.5281,-0.5281,-0.5241,-0.5237,-0.5286,-0.5286,-0.5286,-0.5286,-0.5286,-0.5286,-0.5256,-0.5272,-0.5267,-0.5283,-0.5281,-0.529,-0.5292,-0.5294,-0.5295,-0.5306,-0.5312,-0.5308,-0.5307,-0.5313,-0.5319,-0.5317,-0.532,-0.5329,-0.5326,-0.5289,-0.5284,-0.5278,-0.5274,-0.533,-0.533,-0.5364,-0.5365,-0.5365]},{"header":{"parameterUnit":"m.s-1","parameterCategory":1,"la1":30.2991,"la2":30.254,"lo1":-89.0895,"lo2":-89.0444,"dy":0.0017,"dx":0.0017,"nx":28,"ny":28,"refTime":"2024-09-29T03:00:00:Z","depth":0,"parameterNumber":3,"parameterNumberName":"V-component_of_WINDS"},"data":[0,0,0,0,0,0,0,0,0,0,0,0,0,0,0,0,0,0,0,0,0,0,0,0,0,0,0,0,0,0,0,0,0,0,0,0,0,0,0,0,0,0,0,0,0,0,0,0,0,0,0,0,0,0,0,0,0,0,-2.0862,-2.0863,0,-2.1017,-2.1019,-2.1021,-2.1046,-2.1045,-2.1044,-2.1042,-2.1201,-2.1206,-2.1212,0,0,0,0,0,0,0,0,0,0,0,0,0,-2.0586,-2.059,-2.0861,-2.0863,-2.0865,-2.1017,-2.1019,-2.1021,-2.1047,-2.1045,-2.1043,-2.1042,-2.1199,-2.1206,-2.1212,0,0,0,0,0,0,0,0,0,0,0,0,0,-2.072,-2.0592,-2.0861,-2.0896,-2.0901,-2.1017,-2.1019,-2.1022,-2.1047,-2.1045,-2.1043,-2.1041,-2.1197,-2.1205,-2.1213,-2.1304,0,0,-2.1238,-2.1242,0,0,0,0,0,0,0,0,-2.0712,-2.073,-2.0889,-2.0894,-2.09,-2.101,-2.098,-2.1117,-2.1047,-2.0992,-2.1042,-2.104,-2.1139,-2.1152,-2.1186,-2.1312,-2.1318,-2.1239,-2.1244,-2.1247,-2.125,0,0,0,0,0,0,0,-2.0703,-2.0723,-2.0923,-2.0891,-2.0898,-2.0904,-2.0921,-2.1006,-2.1075,-2.0996,-2.0998,-2.1017,-2.1141,-2.1178,-2.1189,-2.1321,-2.1239,-2.1246,-2.1251,-2.1254,-2.153,-2.1533,0,0,0,0,0,0,-2.0687,-2.0715,-2.0918,-2.0928,-2.0799,-2.0911,-2.093,-2.0977,-2.1074,-2.1087,-2.1018,-2.1017,-2.1165,-2.118,-2.1195,-2.1309,-2.1247,-2.1255,-2.126,-2.1528,-2.1531,-2.1534,0,0,0,0,0,0,-2.0681,-2.0705,-2.0912,-2.0822,-2.0849,-2.0918,-2.0971,-2.0981,-2.1017,-2.109,-2.1103,-2.1042,-2.1164,-2.1184,-2.1277,-2.1315,-2.1259,-2.1266,-2.1525,-2.1529,-2.1532,-2.1536,0,0,0,0,0,0,-2.0673,-2.0703,-2.0738,-2.0823,-2.0854,-2.0991,-2.0973,-2.0985,-2.1031,-2.1032,-2.1116,-2.1129,-2.1163,-2.1265,-2.1285,-2.1325,-2.1273,-2.1522,-2.1527,-2.1531,-2.1533,-2.154,-2.1545,0,0,0,0,0,-2.0663,-2.0733,-2.074,-2.0764,-2.0899,-2.0994,-2.1011,-2.105,-2.1034,-2.107,-2.1118,-2.1126,-2.1307,-2.1274,-2.1298,-2.134,-2.152,-2.1525,-2.1531,-2.153,-2.1538,-2.1545,0,0,0,0,0,0,-2.065,-2.0744,-2.0753,-2.0852,-2.0915,-2.0998,-2.1044,-2.1057,-2.1125,-2.1123,-2.1168,-2.1187,-2.1278,-2.1319,-2.128,-2.1434,-2.1412,-2.1423,-2.1404,-2.1412,-2.1418,-2.1406,-2.1279,0,0,0,0,0,-2.0658,-2.0727,-2.0806,-2.0885,-2.0917,-2.0975,-2.1017,-2.1042,-2.1109,-2.1135,-2.1189,-2.1253,-2.1325,-2.1371,-2.144,-2.1539,-2.1558,-2.158,-2.1586,-2.1591,-2.1599,-2.1655,-2.1665,-2.1551,-2.1551,-2.1551,0,0,-2.0676,-2.0737,-2.0777,-2.0884,-2.0936,-2.1006,-2.0997,-2.1071,-2.1124,-2.1146,-2.1238,-2.128,-2.1355,-2.1451,-2.1497,-2.1488,-2.1635,-2.1598,-2.1601,-2.1607,-2.1661,-2.1672,-2.1681,-2.1555,-2.1554,-2.1554,0,0,-2.0746,-2.0798,-2.087,-2.0922,-2.1001,-2.1039,-2.1057,-2.1138,-2.1167,-2.126,-2.1279,-2.1342,-2.1464,-2.1516,-2.1559,-2.1649,-2.1659,-2.1671,-2.1702,-2.1756,-2.1765,-2.1773,-2.1805,-2.1816,-2.1679,-2.1679,-2.1679,0,-2.0758,-2.0865,-2.0906,-2.098,-2.1027,-2.1051,-2.1125,-2.1173,-2.127,-2.1302,-2.1291,-2.1445,-2.1497,-2.1606,-2.1628,-2.1662,-2.1683,-2.1661,-2.176,-2.1769,-2.1777,-2.1808,-2.182,-2.168,-2.168,-2.168,-2.1679,0,-2.0877,-2.095,-2.0999,-2.1093,-2.1145,-2.1219,-2.1271,-2.1319,-2.134,-2.138,-2.1474,-2.1538,-2.1621,-2.1649,-2.1669,-2.1762,-2.1754,-2.1751,-2.173,-2.1788,-2.1818,-2.183,-2.1681,-2.1681,-2.168,-2.168,0,0,-2.094,-2.1057,-2.1074,-2.1117,-2.1206,-2.1264,-2.1338,-2.142,-2.1461,-2.1527,-2.1591,-2.1694,-2.1693,-2.1741,-2.1768,-2.1815,-2.1883,-2.1807,-2.1809,-2.1818,-2.1989,-2.199,-2.2003,-2.189,-2.1893,-2.1895,-2.1982,0,-2.102,-2.1154,-2.1194,-2.1307,-2.1376,-2.1401,-2.1466,-2.1527,-2.1567,-2.1631,-2.1674,-2.1747,-2.1739,-2.1769,-2.1817,-2.1864,-2.1917,-2.1859,-2.195,-2.1953,-2.193,-2.2019,-2.202,-2.21,-2.1994,-2.1996,-2.1998,0,-2.113,-2.1199,-2.1319,-2.14,-2.143,-2.1488,-2.1567,-2.1628,-2.1698,-2.1724,-2.1779,-2.1802,-2.1881,-2.1856,-2.1966,-2.1925,-2.1965,-2.1994,-2.1998,-2.2007,-2.1978,-2.2031,-2.2126,-2.2138,-2.2017,-2.2015,-2.2014,0,-2.1165,-2.1288,-2.1376,-2.1412,-2.1508,-2.1548,-2.159,-2.1659,-2.1706,-2.1775,-2.1806,-2.1883,-2.1925,-2.1984,-2.2027,-2.2005,-2.2133,-2.2112,-2.2156,-2.2155,-2.2181,-2.2179,-2.2284,-2.2208,-2.2207,-2.2207,-2.2207,0,-2.1249,-2.1321,-2.1393,-2.1446,-2.1528,-2.1574,-2.1654,-2.1697,-2.1758,-2.182,-2.1847,-2.1905,-2.1959,-2.2024,-2.2059,-2.2144,-2.2163,-2.2186,-2.2194,-2.2183,-2.218,-2.221,-2.2205,-2.2211,-2.221,-2.2209,-2.2209,0,-2.1301,-2.1352,-2.1449,-2.1533,-2.1555,-2.1612,-2.1684,-2.1737,-2.1778,-2.1857,-2.1878,-2.1942,-2.2021,-2.207,-2.217,-2.2193,-2.2287,-2.2294,-2.2263,-2.2267,-2.2309,-2.2304,-2.2436,-2.2456,-2.2366,-2.2367,-2.2368,0,-2.1351,-2.1408,-2.1498,-2.1542,-2.1585,-2.1655,-2.1704,-2.1751,-2.18,-2.1885,-2.1928,-2.2009,-2.2076,-2.22,-2.2255,-2.2332,-2.234,-2.2381,-2.2352,-2.2339,-2.2341,-2.2337,-2.2342,-2.2386,-2.2387,-2.2387,-2.2388,0,-2.1435,-2.1458,-2.1527,-2.1605,-2.1662,-2.1726,-2.1789,-2.1824,-2.1882,-2.1936,-2.2017,-2.2069,-2.2172,-2.2251,-2.2333,-2.2376,-2.2392,-2.2397,-2.2411,-2.24,-2.2381,-2.2392,-2.2276,-2.2393,-2.2393,-2.2392,-2.2392,-2.2392,-2.1488,-2.154,-2.1611,-2.1687,-2.174,-2.18,-2.1854,-2.1902,-2.1971,-2.2058,-2.2082,-2.2166,-2.2236,-2.2348,-2.2392,-2.2459,-2.2454,-2.2474,-2.2479,-2.2484,-2.2484,-2.237,-2.2474,-2.2474,-2.2474,-2.2474,-2.2474,0,-2.1573,-2.1621,-2.1691,-2.1779,-2.1839,-2.185,-2.1921,-2.197,-2.2045,-2.2109,-2.2174,-2.2268,-2.2345,-2.2407,-2.2487,-2.2528,-2.2538,-2.2548,-2.2545,-2.2555,-2.2485,-2.2465,-2.2539,-2.2539,-2.2539,-2.2539,-2.2539,-2.2539,-2.1625,-2.1712,-2.1744,-2.1858,-2.1905,-2.1989,-2.2029,-2.2083,-2.2135,-2.2238,-2.2303,-2.2343,-2.2406,-2.2491,-2.2563,-2.2579,-2.2607,-2.2616,-2.2633,-2.2567,-2.2559,-2.2553,-2.2534,-2.2621,-2.2621,-2.2697,-2.2698,-2.2698]}]]